Location: Gugi
(45.4667°N, 11.1000°E)
Time: 11:37:06
(UTC+00:00)

Cosmos 1656 - Pass Details

Date: 17 November 2019
Orbit: 800 x 847 km, 71.1° (Epoch: 11 December)

Event Time Altitude Azimuth Distance (km) Brightness Sun altitude
Rises 17:20:23 0° 218° (SW) 3,351 7.6 -16.8°
Reaches altitude 10° 17:22:53 10° 223° (SW) 2,415 6.9 -17.3°
Maximum altitude 17:28:16 53° 300° (WNW) 992 4.3 -18.2°
Drops below altitude 10° 17:33:39 10° 18° (NNE) 2,400 5.8 -19.1°
Enters shadow 17:34:03 - 19° (NNE) 2,550 5.9 -19.2°
